Location: Chantarel
(45.1638°N, 1.7873°E)
Time: 19:48:44
(UTC+00:00)

HJ-1C - Pass Details

Date: 03 March 2021
Orbit: 428 x 440 km, 97.1° (Epoch: 13 April)

Event Time Altitude Azimuth Distance (km) Brightness Sun altitude
Rises 18:31:34 0° 156° (SSE) 2,415 6.9 -9.4°
Reaches altitude 10° 18:33:36 10° 152° (SSE) 1,549 5.8 -9.7°
Maximum altitude 18:36:51 53° 75° (ENE) 545 3.4 -10.3°
Drops below altitude 10° 18:40:06 10° 357° (N) 1,555 6.2 -10.9°
Sets 18:42:09 0° 353° (N) 2,427 7.2 -11.2°
